LGL2039 EDDL-LEPA

Flight info

Callsign LGL2039
Flight time N/A
Altitude 39000
Route MODRU7Z MODRU Z283 RITAX UT27 ROUSY DCT GTQ DCT POGOL DCT LASAT DCT MOROK DCT GILIR DCT GEVEA DCT INCUS DCT BALSI DCT RETNO DCT TUPOX DCT MTG DCT DIVKO DCT VATIR N852 VERSO L129 LUNIK
Aircraft B38M/M-SDE1FGHILORVWXY/HB1

Departure

Time N/A
Airport Düsseldorf Airport (EDDL)

Arrival

Time 2026-05-06 12:39
Airport Palma de Mallorca Airport (LEPA)
Time Latitude Longitude Altitude Speed Heading
2026-05-06 12:18 40.74704 3.54849 36819 ft 405 kts 207°
2026-05-06 12:18 40.72074 3.53509 36169 ft 404 kts 207°
2026-05-06 12:18 40.69494 3.52194 35274 ft 402 kts 207°
2026-05-06 12:18 40.66887 3.50867 34241 ft 401 kts 207°
2026-05-06 12:19 40.64268 3.49535 33343 ft 396 kts 207°
2026-05-06 12:19 40.61740 3.48251 32488 ft 392 kts 207°
2026-05-06 12:19 40.59211 3.46968 31654 ft 387 kts 207°
2026-05-06 12:19 40.56723 3.45705 30851 ft 381 kts 207°
2026-05-06 12:20 40.54261 3.44457 30056 ft 376 kts 207°
2026-05-06 12:20 40.51836 3.43228 29269 ft 371 kts 207°
2026-05-06 12:20 40.49443 3.42017 28488 ft 366 kts 207°
2026-05-06 12:20 40.47087 3.40824 27753 ft 360 kts 207°
2026-05-06 12:21 40.45514 3.40033 27242 ft 357 kts 206°
2026-05-06 12:21 40.43102 3.39360 26465 ft 366 kts 188°
2026-05-06 12:21 40.40553 3.39494 25700 ft 365 kts 185°
2026-05-06 12:21 40.38030 3.39610 24922 ft 362 kts 185°
2026-05-06 12:22 40.35529 3.39738 24192 ft 358 kts 185°
2026-05-06 12:22 40.33055 3.39873 23469 ft 354 kts 185°
2026-05-06 12:22 40.30607 3.40010 22748 ft 350 kts 185°
2026-05-06 12:22 40.28192 3.40147 22037 ft 346 kts 185°
2026-05-06 12:23 40.25791 3.40282 21305 ft 343 kts 185°
2026-05-06 12:23 40.23421 3.40417 20600 ft 340 kts 185°
2026-05-06 12:23 40.21067 3.40551 19887 ft 337 kts 184°
2026-05-06 12:23 40.18733 3.40682 19172 ft 334 kts 184°
2026-05-06 12:24 40.16424 3.40813 18481 ft 331 kts 185°
2026-05-06 12:24 40.14128 3.40943 17783 ft 328 kts 185°
2026-05-06 12:24 40.11860 3.41071 17092 ft 326 kts 184°
2026-05-06 12:24 40.09611 3.41199 16429 ft 322 kts 184°
2026-05-06 12:25 40.07383 3.41325 15756 ft 319 kts 184°
2026-05-06 12:25 40.05179 3.41450 15083 ft 316 kts 183°
2026-05-06 12:25 40.02993 3.41573 14438 ft 312 kts 183°
2026-05-06 12:25 40.00833 3.41694 13762 ft 310 kts 182°
2026-05-06 12:26 39.98699 3.41815 13148 ft 305 kts 182°
2026-05-06 12:26 39.96601 3.41934 12644 ft 298 kts 182°
2026-05-06 12:26 39.94566 3.42049 12287 ft 287 kts 182°
2026-05-06 12:26 39.92613 3.42158 11973 ft 275 kts 181°
2026-05-06 12:27 39.90735 3.42263 11689 ft 268 kts 182°
2026-05-06 12:27 39.88844 3.42368 11401 ft 274 kts 181°
2026-05-06 12:27 39.86919 3.42476 11083 ft 280 kts 181°
2026-05-06 12:27 39.84967 3.42586 10767 ft 281 kts 181°
2026-05-06 12:28 39.83011 3.42695 10453 ft 282 kts 181°
2026-05-06 12:28 39.81053 3.42804 10147 ft 281 kts 181°
2026-05-06 12:28 39.79122 3.42914 9986 ft 274 kts 181°
2026-05-06 12:28 39.77241 3.43018 9762 ft 269 kts 181°
2026-05-06 12:29 39.75394 3.43122 9470 ft 265 kts 181°
2026-05-06 12:29 39.73589 3.43137 9155 ft 260 kts 191°
2026-05-06 12:29 39.71923 3.42317 8789 ft 257 kts 216°
2026-05-06 12:29 39.70726 3.40636 8454 ft 255 kts 240°
2026-05-06 12:30 39.70171 3.38464 8163 ft 255 kts 262°
2026-05-06 12:30 39.70135 3.36164 7887 ft 254 kts 267°
2026-05-06 12:30 39.70157 3.33864 7559 ft 255 kts 268°
2026-05-06 12:30 39.70200 3.31566 7251 ft 254 kts 269°
2026-05-06 12:31 39.70252 3.29276 6940 ft 254 kts 269°
2026-05-06 12:31 39.70311 3.26984 6661 ft 254 kts 269°
2026-05-06 12:31 39.70376 3.24700 6341 ft 252 kts 269°
2026-05-06 12:31 39.70443 3.22431 6070 ft 250 kts 269°
2026-05-06 12:32 39.70511 3.20186 5810 ft 248 kts 270°
2026-05-06 12:32 39.70579 3.17965 5512 ft 246 kts 269°
2026-05-06 12:32 39.70646 3.15752 5224 ft 244 kts 269°
2026-05-06 12:32 39.70712 3.13558 4949 ft 242 kts 270°
2026-05-06 12:33 39.70778 3.11369 4666 ft 242 kts 270°
2026-05-06 12:33 39.70751 3.09225 4496 ft 233 kts 255°
2026-05-06 12:33 39.70092 3.07370 4354 ft 223 kts 238°
2026-05-06 12:33 39.69328 3.05677 4261 ft 212 kts 238°
2026-05-06 12:34 39.68594 3.04064 4148 ft 203 kts 238°
2026-05-06 12:34 39.67887 3.02516 4028 ft 198 kts 238°
2026-05-06 12:34 39.67202 3.01004 3956 ft 191 kts 238°
2026-05-06 12:34 39.66529 2.99542 3829 ft 187 kts 238°
2026-05-06 12:35 39.65861 2.98103 3699 ft 186 kts 238°
2026-05-06 12:35 39.65190 2.96667 3550 ft 185 kts 238°
2026-05-06 12:35 39.64521 2.95238 3332 ft 186 kts 237°
2026-05-06 12:35 39.63849 2.93808 3107 ft 186 kts 237°
2026-05-06 12:36 39.63174 2.92370 2867 ft 188 kts 237°
2026-05-06 12:36 39.62486 2.90908 2619 ft 191 kts 237°
2026-05-06 12:36 39.61791 2.89428 2364 ft 194 kts 238°
2026-05-06 12:36 39.61083 2.87925 2106 ft 197 kts 238°
2026-05-06 12:37 39.60371 2.86414 1825 ft 196 kts 238°
2026-05-06 12:37 39.59688 2.84963 1607 ft 177 kts 238°
2026-05-06 12:37 39.59076 2.83665 1382 ft 164 kts 238°
2026-05-06 12:37 39.58507 2.82458 1177 ft 149 kts 238°
2026-05-06 12:38 39.57979 2.81337 965 ft 143 kts 238°
2026-05-06 12:38 39.57464 2.80206 767 ft 148 kts 240°
2026-05-06 12:38 39.56925 2.79030 510 ft 153 kts 238°
2026-05-06 12:38 39.56354 2.77876 393 ft 151 kts 237°
2026-05-06 12:39 39.55809 2.76730 185 ft 146 kts 238°
2026-05-06 12:39 39.55293 2.75647 43 ft 133 kts 238°
2026-05-06 12:39 39.54913 2.74836 39 ft 70 kts 238°
2026-05-06 12:39 39.54732 2.74454 41 ft 39 kts 238°
2026-05-06 12:40 39.54588 2.74147 41 ft 33 kts 243°
2026-05-06 12:40 39.54551 2.73878 41 ft 25 kts 270°
2026-05-06 12:40 39.54567 2.73749 39 ft 12 kts 329°
2026-05-06 12:40 39.54625 2.73801 41 ft 11 kts 77°
2026-05-06 12:41 39.54666 2.73888 39 ft 13 kts 54°
2026-05-06 12:41 39.54723 2.73992 39 ft 16 kts 57°
2026-05-06 12:41 39.54789 2.74114 39 ft 11 kts 37°
2026-05-06 12:41 39.54849 2.74107 39 ft 10 kts 329°
2026-05-06 12:42 39.54914 2.74054 38 ft 13 kts 328°
2026-05-06 12:42 39.54983 2.73999 38 ft 13 kts 329°
2026-05-06 12:42 39.55071 2.73931 41 ft 17 kts 329°
2026-05-06 12:42 39.55161 2.73861 39 ft 11 kts 329°
2026-05-06 12:43 39.55176 2.73809 41 ft 5 kts 249°
2026-05-06 12:43 39.55167 2.73762 41 ft 5 kts 285°
2026-05-06 12:43 39.55179 2.73704 41 ft 8 kts 262°
2026-05-06 12:43 39.55148 2.73628 39 ft 11 kts 239°
2026-05-06 12:44 39.55101 2.73529 40 ft 14 kts 239°
2026-05-06 12:44 39.55057 2.73439 41 ft 6 kts 225°
2026-05-06 12:44 39.55018 2.73434 41 ft 4 kts 166°
2026-05-06 12:44 39.55001 2.73440 41 ft 0 kts 164°
2026-05-06 12:45 39.55000 2.73440 41 ft 0 kts 164°